Tracking 29892 objects as of 21-Nov-2024
HD Live streaming from Space Station
objects crossing your sky now

COSMOS 252 DEB

Track COSMOS 252 DEB now!
10-day predictions


NORAD ID: 3554
Int'l Code: 1968-097G
Perigee: 521.4 km
Apogee: 1,380.5 km
Inclination: 62.3 °
Period: 103.9 minutes
Semi major axis: 7321 km
RCS: 0.0691 m2 (small)
Launch date: November 1, 1968
Source: Commonwealth of Independent States (former USSR) (CIS)
Launch site: TYURATAM MISSILE AND SPACE COMPLEX (TTMTR)

Note: This is SATELLITE DEBRIS
Your satellite tracking list
STARLINK-1222
Track 1 satellite(s)




NASA's NSSDC Master Catalog

Two Line Element Set (TLE):
1 03554U 68097G   24325.91825533  .00003350  00000-0  76376-3 0  9992
2 03554  62.2657 279.0779 0586642 153.8304 209.3686 13.85670665745909
Source of the keplerian elements: AFSPC